Location: Slemon Park
(46.4340°N, 63.8219°W)
Time: 08:24:58
(UTC-03:00)

ISS - All Passes

Search period start: 31 October 2014 00:00
Search period end: 09 November 2014 23:00
Orbit: 412 x 417 km, 51.6° (Epoch: 31 October)

Date Brightness Start Highest point End Pass type
(mag) Time Alt. Az. Time Alt. Az. Time Alt. Az.
31 Oct - 10:08:21 10° SSE 10:10:12 14° SE 10:12:03 10° E daylight
31 Oct - 11:43:07 10° WSW 11:46:26 82° SSE 11:49:47 10° ENE daylight
31 Oct - 13:20:16 10° WNW 13:23:22 35° N 13:26:29 10° ENE daylight
31 Oct - 14:57:26 10° WNW 15:00:34 37° N 15:03:43 10° E daylight
31 Oct - 16:34:07 10° WNW 16:37:27 70° SSW 16:40:46 10° SE daylight
31 Oct - 18:12:21 10° WSW 18:13:37 12° SW 18:14:52 10° SSW daylight
01 Nov - 10:54:04 10° SW 10:57:18 52° SSE 11:00:33 10° ENE daylight
01 Nov - 12:30:54 10° W 12:34:05 41° NNW 12:37:16 10° ENE daylight
01 Nov - 14:08:11 10° WNW 14:11:16 33° N 14:14:20 10° ENE daylight
01 Nov - 15:44:55 10° WNW 15:48:16 78° NNE 15:51:37 10° ESE daylight
01 Nov - 17:22:12 10° W 17:24:39 19° SW 17:27:05 10° S daylight
02 Nov - 09:05:11 10° SSW 09:08:11 32° SE 09:11:12 10° ENE daylight
02 Nov - 10:41:30 10° W 10:44:46 53° NNW 10:48:03 10° ENE daylight
02 Nov - 12:18:51 10° WNW 12:21:54 32° N 12:24:57 10° ENE daylight
02 Nov - 13:55:43 10° WNW 13:59:00 55° NNE 14:02:18 10° E daylight
02 Nov - 15:32:36 10° WNW 15:35:35 30° SW 15:38:33 10° SSE daylight
03 Nov - 08:16:34 10° S 08:19:05 20° SE 08:21:36 10° E daylight
03 Nov - 09:52:09 10° WSW 09:55:28 74° NNW 09:58:48 10° ENE daylight
03 Nov - 11:29:26 10° WNW 11:32:29 33° N 11:35:33 10° ENE daylight
03 Nov - 13:06:27 10° WNW 13:09:40 42° NNE 13:12:52 10° E daylight
03 Nov - 14:43:10 10° WNW 14:46:25 49° SW 14:49:38 10° SE daylight
04 Nov - 07:28:32 10° SSE 07:30:00 12° SE 07:31:28 10° ESE daylight
04 Nov - 09:02:52 10° SW 09:06:10 74° SSE 09:09:30 10° ENE daylight
04 Nov - 10:39:56 10° W 10:43:03 36° N 10:46:11 10° ENE daylight
04 Nov - 12:17:08 10° WNW 12:20:15 36° N 12:23:22 10° ENE daylight
04 Nov - 13:53:49 10° WNW 13:57:09 78° SSW 14:00:29 10° ESE daylight
04 Nov - 15:31:40 10° WSW 15:33:21 13° SW 15:35:02 10° SSW daylight
05 Nov - 08:13:42 10° SW 08:16:53 46° SE 08:20:06 10° ENE daylight
05 Nov - 09:50:24 10° W 09:53:36 43° NNW 09:56:49 10° ENE daylight
05 Nov - 11:27:43 10° WNW 11:30:46 32° N 11:33:49 10° ENE daylight
05 Nov - 13:04:28 10° WNW 13:07:48 71° NNE 13:11:07 10° ESE daylight
05 Nov - 14:41:35 10° W 14:44:13 21° SW 14:46:49 10° S daylight
06 Nov - 07:24:43 10° SSW 07:27:37 28° SE 07:30:32 10° E daylight
06 Nov - 09:00:52 10° WSW 09:04:09 57° NNW 09:07:27 10° ENE daylight
06 Nov - 10:38:12 10° WNW 10:41:14 32° N 10:44:17 10° ENE daylight
06 Nov - 12:15:06 10° WNW 12:18:22 51° NNE 12:21:37 10° E daylight
06 Nov - 13:51:54 10° WNW 13:54:58 34° SW 13:58:01 10° SSE daylight
07 Nov - 06:36:04 10° S 06:38:22 18° SE 06:40:41 10° E daylight
07 Nov - 08:11:22 10° WSW 08:14:42 82° NNW 08:18:02 10° ENE daylight
07 Nov - 09:48:36 10° WNW 09:51:40 33° N 09:54:45 10° ENE daylight
07 Nov - 11:25:40 10° WNW 11:28:51 40° NNE 11:32:01 10° E daylight
07 Nov - 13:02:21 10° WNW 13:05:38 56° SSW 13:08:53 10° SE daylight
08 Nov - 05:48:20 10° SE 05:49:09 11° SE 05:49:57 10° ESE visible
08 Nov - 07:21:58 10° SW 07:25:15 65° SSE 07:28:33 10° ENE daylight
08 Nov - 08:58:57 10° W 09:02:05 38° NNW 09:05:14 10° ENE daylight
08 Nov - 10:36:10 10° WNW 10:39:15 34° N 10:42:21 10° ENE daylight
08 Nov - 12:12:51 10° WNW 12:16:11 87° SSW 12:19:31 10° ESE daylight
08 Nov - 13:50:25 10° W 13:52:27 15° SW 13:54:28 10° S daylight
09 Nov - 06:32:42 10° SW 06:35:49 40° SE 06:38:58 10° ENE visible
09 Nov - 08:09:15 10° W 08:12:29 47° NNW 08:15:43 10° ENE daylight
09 Nov - 09:46:34 10° WNW 09:49:37 32° N 09:52:39 10° ENE daylight
09 Nov - 11:23:21 10° WNW 11:26:40 64° NNE 11:29:58 10° ESE daylight
09 Nov - 13:00:21 10° W 13:03:07 24° SW 13:05:53 10° SSE daylight
